Weather History for Jacksonville, FL

Change the Weather History Date:

Monday, June 10, 2013

  Actual Average Record
Temperature  
Mean Temperature 82 °F 79 °F  
Max Temperature 90 °F 89 °F 100 °F (1954)
Min Temperature 73 °F 69 °F 58 °F (1913)
Degree Days  
Heating Degree Days 0 0  
Month to date heating degree days 0 0  
Since 1 June heating degree days 0 0  
Since 1 July heating degree days 1243 1349  
Cooling Degree Days 17 14  
Month to date cooling degree days 141 136  
Year to date cooling degree days 577 620  
Since 1 June cooling degree days 141 136  
Growing Degree Days 32 (Base 50)    
Moisture  
Dew Point 73 °F    
Average Humidity 75    
Maximum Humidity 94    
Minimum Humidity 56    
Precipitation  
Precipitation T in 0.20 in 5.11 in (1885)
Month to date precipitation 3.13 1.80  
Year to date precipitation 20.37 17.36  
Snow  
Snow 0.00 in 0.00 in 0.00 in (2002)
Month to date snowfall 0.0 0.0  
Since 1 June snowfall 0.0 0.0  
Since 1 July snowfall 0.0 T  
Snow Depth 0.00 in    
Sea Level Pressure  
Sea Level Pressure 30.06 in    
Wind  
Wind Speed 5 mph (South)    
Max Wind Speed 13 mph    
Max Gust Speed 17 mph    
Visibility 10 miles    
Events Thunderstorm    
T = Trace of Precipitation, MM = Missing Value Source: NWS Daily Summary

Daily Weather History Graph

Daily Weather History Graph

Search for Another Location

Airport:

Trip Planner

Search our weather history database for the weather conditions in past years. The results will help you decide how hot, cold, wet, or windy it might be!

Date:

Astronomy

Jun. 10, 2013 Rise Set
Actual Time 6:23 AM EDT 8:28 PM EDT
Civil Twilight 5:56 AM EDT 8:56 PM EDT
Nautical Twilight 5:22 AM EDT 9:29 PM EDT
Astronomical Twilight 4:47 AM EDT 10:05 PM EDT
Moon 8:05 AM EDT (6/10) 10:01 PM EDT (6/10)
Length of Visible Light 15h 00m
Length of Day
14h 04m
Waxing Crescent, 4% of the Moon is Illuminated
Jun 10
Waxing Crescent
Jun 16
First Quarter
Jun 23
Full
Jun 30
Last Quarter
Jul 8
New

Hourly Weather History & Observations

Time (EDT) Temp. Heat Index Dew Point Humidity Pressure Visibility Wind Dir Wind Speed Gust Speed Precip Events Conditions
12:56 AM 75.0 °F - 73.0 °F 94% 30.11 in 10.0 mi South 5.8 mph - N/A   Mostly Cloudy
1:56 AM 75.0 °F - 73.0 °F 94% 30.09 in 10.0 mi SE 4.6 mph - N/A   Mostly Cloudy
2:56 AM 75.0 °F - 73.0 °F 94% 30.08 in 10.0 mi SSE 4.6 mph - N/A   Mostly Cloudy
3:56 AM 75.0 °F - 73.0 °F 94% 30.06 in 10.0 mi SE 8.1 mph - N/A   Mostly Cloudy
4:56 AM 75.0 °F - 73.0 °F 94% 30.07 in 10.0 mi South 4.6 mph - N/A   Mostly Cloudy
5:56 AM 73.9 °F - 72.0 °F 93% 30.09 in 10.0 mi Calm Calm - N/A   Mostly Cloudy
6:56 AM 73.0 °F - 72.0 °F 96% 30.09 in 8.0 mi Calm Calm - N/A   Mostly Cloudy
7:56 AM 77.0 °F - 73.9 °F 90% 30.10 in 10.0 mi SSE 3.5 mph - N/A   Mostly Cloudy
8:56 AM 79.0 °F - 73.9 °F 84% 30.11 in 10.0 mi South 9.2 mph - N/A   Mostly Cloudy
9:56 AM 82.0 °F 87.4 °F 73.0 °F 74% 30.11 in 10.0 mi SSW 8.1 mph - N/A   Mostly Cloudy
10:56 AM 84.0 °F 90.2 °F 73.0 °F 69% 30.10 in 10.0 mi SSW 10.4 mph - N/A   Mostly Cloudy
11:56 AM 87.1 °F 94.5 °F 73.0 °F 63% 30.09 in 10.0 mi SSW 8.1 mph - N/A   Mostly Cloudy
12:56 PM 87.1 °F 92.8 °F 71.1 °F 59% 30.08 in 10.0 mi SSW 5.8 mph - N/A   Mostly Cloudy
1:56 PM 90.0 °F 96.9 °F 72.0 °F 55% 30.06 in 10.0 mi SW 5.8 mph - N/A   Mostly Cloudy
2:56 PM 88.0 °F 93.8 °F 71.1 °F 57% 30.05 in 10.0 mi South 6.9 mph - N/A   Mostly Cloudy
3:56 PM 87.1 °F 93.6 °F 72.0 °F 61% 30.04 in 10.0 mi South 6.9 mph - N/A   Mostly Cloudy
4:56 PM 87.1 °F 94.5 °F 73.0 °F 63% 30.01 in 10.0 mi SSE 8.1 mph - 0.00 in   Mostly Cloudy
5:56 PM 86.0 °F 92.2 °F 72.0 °F 63% 30.01 in 10.0 mi South 9.2 mph - N/A   Mostly Cloudy
6:10 PM 84.2 °F 89.6 °F 71.6 °F 66% 30.01 in 10.0 mi SSW 6.9 mph - N/A Thunderstorm Thunderstorm
6:48 PM 84.2 °F 90.9 °F 73.4 °F 70% 30.01 in 10.0 mi WSW 3.5 mph - N/A   Mostly Cloudy
6:56 PM 84.9 °F 91.4 °F 73.0 °F 67% 30.02 in 10.0 mi WSW 5.8 mph - N/A   Mostly Cloudy
7:56 PM 82.9 °F 89.4 °F 73.9 °F 74% 30.04 in 10.0 mi West 3.5 mph - N/A   Mostly Cloudy
8:56 PM 81.0 °F 86.7 °F 75.0 °F 82% 30.04 in 10.0 mi ENE 3.5 mph - N/A   Mostly Cloudy
9:56 PM 79.0 °F - 75.0 °F 88% 30.05 in 10.0 mi Calm Calm - N/A   Mostly Cloudy
10:56 PM 79.0 °F - 73.0 °F 82% 30.07 in 10.0 mi ENE 3.5 mph - N/A   Mostly Cloudy
11:56 PM 75.9 °F - 73.0 °F 91% 30.07 in 10.0 mi Calm Calm - N/A   Mostly Cloudy